TimeCST,TemperatureF,Dew PointF,Humidity,Sea Level PressureIn,VisibilityMPH,Wind Direction,Wind SpeedMPH,Gust SpeedMPH,PrecipitationIn,Events,Conditions,WindDirDegrees,DateUTC
12:53 AM,70.0,66.0,87,30.02,10.0,SSE,15.0,-,N/A,,Clear,150,2013-03-09 06:53:00
1:53 AM,71.1,66.0,84,29.97,10.0,SE,17.3,23.0,N/A,,Clear,140,2013-03-09 07:53:00
2:53 AM,71.1,66.0,84,29.94,10.0,SSE,19.6,25.3,N/A,,Clear,150,2013-03-09 08:53:00
3:53 AM,71.1,66.0,84,29.91,10.0,SSE,19.6,25.3,N/A,,Partly Cloudy,150,2013-03-09 09:53:00
4:53 AM,71.1,66.9,87,29.91,10.0,SSE,20.7,27.6,N/A,,Partly Cloudy,150,2013-03-09 10:53:00
5:53 AM,71.1,66.9,87,29.89,10.0,SSE,24.2,28.8,N/A,,Clear,150,2013-03-09 11:53:00
6:53 AM,71.1,66.9,87,29.90,10.0,SSE,18.4,26.5,N/A,,Clear,150,2013-03-09 12:53:00
7:53 AM,71.1,66.9,87,29.92,10.0,SSE,16.1,-,N/A,,Partly Cloudy,150,2013-03-09 13:53:00
8:53 AM,73.0,66.9,81,29.92,10.0,SSE,21.9,29.9,0.00,,Partly Cloudy,150,2013-03-09 14:53:00
9:38 AM,75.2,68.0,78,29.92,10.0,SSE,24.2,35.7,N/A,,Mostly Cloudy,160,2013-03-09 15:38:00
9:53 AM,75.9,66.9,74,29.92,10.0,SSE,27.6,36.8,N/A,,Overcast,160,2013-03-09 15:53:00
10:53 AM,78.1,66.9,68,29.91,10.0,SSE,29.9,39.1,N/A,,Mostly Cloudy,160,2013-03-09 16:53:00
11:16 AM,78.8,66.2,65,29.91,10.0,SSE,28.8,36.8,N/A,,Mostly Cloudy,160,2013-03-09 17:16:00
11:43 AM,80.6,66.2,61,29.89,10.0,SSE,27.6,39.1,N/A,,Mostly Cloudy,160,2013-03-09 17:43:00
11:53 AM,79.0,66.0,64,29.89,10.0,SSE,29.9,38.0,N/A,,Mostly Cloudy,160,2013-03-09 17:53:00
12:30 PM,80.6,66.2,61,29.87,10.0,SSE,25.3,36.8,N/A,,Mostly Cloudy,160,2013-03-09 18:30:00
12:40 PM,80.6,66.2,61,29.86,10.0,South,32.2,39.1,N/A,,Mostly Cloudy,170,2013-03-09 18:40:00
12:53 PM,80.1,66.9,64,29.85,10.0,SSE,31.1,40.3,N/A,,Mostly Cloudy,160,2013-03-09 18:53:00
1:53 PM,80.1,66.0,62,29.82,10.0,SSE,29.9,36.8,N/A,,Mostly Cloudy,160,2013-03-09 19:53:00
2:53 PM,79.0,66.0,64,29.79,10.0,SSE,27.6,36.8,N/A,,Overcast,150,2013-03-09 20:53:00
3:53 PM,78.1,64.9,64,29.76,10.0,SSE,27.6,42.6,N/A,,Mostly Cloudy,150,2013-03-09 21:53:00
4:53 PM,75.9,66.0,71,29.75,10.0,SSE,25.3,34.5,N/A,,Mostly Cloudy,150,2013-03-09 22:53:00
5:40 PM,75.2,66.2,73,29.74,10.0,SE,27.6,33.4,N/A,,Scattered Clouds,140,2013-03-09 23:40:00
5:53 PM,73.9,66.0,76,29.73,10.0,SE,26.5,35.7,N/A,,Scattered Clouds,140,2013-03-09 23:53:00
6:53 PM,72.0,66.0,81,29.73,10.0,SSE,23.0,31.1,N/A,,Clear,150,2013-03-10 00:53:00
7:53 PM,71.1,66.9,87,29.73,10.0,SSE,19.6,27.6,N/A,,Partly Cloudy,160,2013-03-10 01:53:00
8:44 PM,71.6,66.2,83,29.76,10.0,SSE,21.9,27.6,N/A,,Mostly Cloudy,160,2013-03-10 02:44:00
8:53 PM,71.1,66.9,87,29.76,10.0,SSE,19.6,28.8,N/A,,Mostly Cloudy,160,2013-03-10 02:53:00
9:53 PM,72.0,68.0,87,29.74,10.0,SSE,19.6,27.6,N/A,,Overcast,160,2013-03-10 03:53:00
10:28 PM,71.6,69.8,94,29.74,9.0,SSE,20.7,28.8,N/A,,Overcast,160,2013-03-10 04:28:00
10:53 PM,72.0,69.1,91,29.75,9.0,SSE,18.4,27.6,N/A,,Overcast,160,2013-03-10 04:53:00
11:18 PM,71.6,69.8,94,29.74,9.0,SSE,19.6,32.2,N/A,,Overcast,160,2013-03-10 05:18:00
11:53 PM,72.0,69.1,91,29.72,9.0,SSE,24.2,31.1,N/A,,Overcast,160,2013-03-10 05:53:00